Hourly Data Report for November 10, 2016

All times are specified in Local Standard Time (LST). Add 1 hour to adjust for Daylight Saving Time where and when it is observed.

KITCHENER/WATERLOO
ONTARIO

43°27'39.000" N
80°22'43.000" W
321.60 m
6144239
71368
YKF

Download Data

Hourly Data (November 2016)
Hourly Data Report for November 10, 2016
Temp Definition
°C
Dew Point Temp Definition
°C
Rel Hum Definition
%
Wind Dir Definition
10's deg

Wind Spd Definition
km/h
Visibility Definition
km
Stn Press Definition
kPa
Hmdx Definition


Wind Chill Definition


Weather Definition


TIME
00:00 Legend Double Dagger -1.6 -2.0 97   0 6.4 98.13     Fog
01:00 Legend Double Dagger -1.8 -2.1 98 LegendMM 4 8.1 98.08   -3 Fog
02:00 Legend Double Dagger -1.8 -2.1 98 18 4 8.1 98.03   -3 Fog
03:00 Legend Double Dagger -0.2 -0.5 98 22 8 16.1 98.01   -3 LegendNANA
04:00 Legend Double Dagger 1.2 0.3 94 21 4 16.1 97.94     LegendNANA
05:00 Legend Double Dagger -0.2 -0.9 95 19 8 16.1 97.90   -3 LegendNANA
06:00 Legend Double Dagger 0.7 -0.2 94 22 8 16.1 97.84     LegendNANA
07:00 Legend Double Dagger 2.1 0.8 91 22 11 16.1 97.77     LegendNANA
08:00 Legend Double Dagger 4.4 2.6 88 25 21 16.1 97.75     LegendNANA
09:00 Legend Double Dagger 6.4 3.3 80 23 18 16.1 97.63     LegendNANA
10:00 Legend Double Dagger 9.0 3.6 69 24 26 16.1 97.55     LegendNANA
11:00 Legend Double Dagger 11.2 3.2 58 24 32 16.1 97.42     LegendNANA
12:00 Legend Double Dagger 13.3 2.9 49 24 34 16.1 97.30     LegendNANA
13:00 Legend Double Dagger 14.8 1.7 41 24 32 16.1 97.16     LegendNANA
14:00 Legend Double Dagger 14.5 1.1 40 24 39 16.1 97.06     LegendNANA
15:00 Legend Double Dagger 13.9 2.2 45 24 32 16.1 96.96     LegendNANA
16:00 Legend Double Dagger 13.5 1.7 45 23 37 16.1 96.88     LegendNANA
17:00 Legend Double Dagger 12.1 1.4 48 23 30 16.1 96.83     LegendNANA
18:00 Legend Double Dagger 10.4 3.0 60 22 30 16.1 96.85     LegendNANA
19:00 Legend Double Dagger 9.8 2.7 61 22 30 16.1 96.79     LegendNANA
20:00 Legend Double Dagger 9.8 2.7 61 23 26 16.1 96.76     LegendNANA
21:00 Legend Double Dagger 10.2 1.6 55 25 35 16.1 96.71     LegendNANA
22:00 Legend Double Dagger 10.4 1.6 54 25 30 16.1 96.67     LegendNANA
23:00 Legend Double Dagger 10.0 2.6 60 27 24 16.1 96.67     LegendNANA

Notes on Data Quality.

Legend

  • E = Estimated
  • M = Missing
  • NA = Not Available
  • ‡ = Partner data that is not subject to review by the National Climate Archives
Date modified: